When you browse on this site, cookies collect data to enhance your experience and personalize the content and advertising you see.
Visit our Privacy Policy to learn more. By continuing to use the site, you agree to this use of cookies and data.
  • en Suisse
  • Liste des pays
  • À 7 jours
  • Température de l'eau
  • Carte météo
  • Widgets météo
  • user-avatar
    Se connecter

    Météo par heure à Prutz

    Ce jour, 20 Octobre, Dimanche

    Heure Température Précipitation Vent Pression Humidité
    00:00 +6°C° 0 mm 4 m/s 631 mmHg 90%
    01:00 +7°C° 0 mm 4 m/s 631 mmHg 92%
    02:00 +6°C° 0 mm 4 m/s 631 mmHg 92%
    03:00 +6°C° 0 mm 4 m/s 631 mmHg 91%
    04:00 +6°C° 0 mm 4 m/s 631 mmHg 91%
    05:00 +6°C° 0 mm 4 m/s 631 mmHg 91%
    06:00 +6°C° 0 mm 4 m/s 631 mmHg 91%
    07:00 +7°C° 0 mm 4 m/s 631 mmHg 92%
    08:00 +8°C° 0 mm 4 m/s 632 mmHg 86%
    09:00 +10°C° 0 mm 4 m/s 632 mmHg 81%
    10:00 +12°C° 0 mm 4 m/s 633 mmHg 76%
    11:00 +12°C° 0 mm 4 m/s 633 mmHg 72%
    12:00 +13°C° 0 mm 4 m/s 633 mmHg 69%
    13:00 +13°C° 0 mm 4 m/s 633 mmHg 66%
    14:00 +13°C° 0 mm 4 m/s 633 mmHg 69%
    15:00 +13°C° 0 mm 4 m/s 633 mmHg 71%
    16:00 +12°C° 0 mm 4 m/s 632 mmHg 74%
    17:00 +11°C° 0 mm 4 m/s 632 mmHg 78%
    18:00 +10°C° 0 mm 4 m/s 632 mmHg 82%
    19:00 +8°C° 0 mm 4 m/s 632 mmHg 86%
    20:00 +8°C° 0 mm 4 m/s 633 mmHg 86%
    21:00 +8°C° 0 mm 4 m/s 633 mmHg 87%
    22:00 +8°C° 0 mm 4 m/s 633 mmHg 87%
    23:00 +7°C° 0 mm 4 m/s 633 mmHg 88%

    Demain, 21 Octobre, Lundi

    Heure Température Précipitation Vent Pression Humidité
    00:00 +7°C° 0 mm 4 m/s 633 mmHg 88%
    01:00 +7°C° 0 mm 4 m/s 633 mmHg 88%
    02:00 +8°C° 0 mm 3 m/s 633 mmHg 89%
    03:00 +8°C° 0 mm 3 m/s 633 mmHg 89%
    04:00 +8°C° 0 mm 3 m/s 633 mmHg 90%
    05:00 +8°C° 0 mm 3 m/s 633 mmHg 90%
    06:00 +8°C° 0 mm 3 m/s 634 mmHg 90%
    07:00 +8°C° 0 mm 3 m/s 634 mmHg 89%
    08:00 +10°C° 0.1 mm 2 m/s 635 mmHg 86%
    09:00 +12°C° 0.1 mm 2 m/s 636 mmHg 82%
    10:00 +13°C° 0.1 mm 2 m/s 637 mmHg 78%
    11:00 +14°C° 0.1 mm 2 m/s 637 mmHg 79%
    12:00 +14°C° 0.1 mm 2 m/s 637 mmHg 79%
    13:00 +14°C° 0.1 mm 2 m/s 638 mmHg 80%
    14:00 +14°C° 0.1 mm 2 m/s 638 mmHg 80%
    15:00 +14°C° 0.1 mm 2 m/s 638 mmHg 80%
    16:00 +14°C° 0.1 mm 2 m/s 637 mmHg 80%
    17:00 +13°C° 0 mm 2 m/s 637 mmHg 84%
    18:00 +10°C° 0 mm 2 m/s 637 mmHg 88%
    19:00 +9°C° 0 mm 2 m/s 637 mmHg 93%
    20:00 +9°C° 0 mm 2 m/s 637 mmHg 92%
    21:00 +9°C° 0 mm 3 m/s 637 mmHg 92%
    22:00 +9°C° 0 mm 3 m/s 637 mmHg 91%
    23:00 +8°C° 0 mm 3 m/s 637 mmHg 91%

    Après-demain, 22 Octobre, Mardi

    Heure Température Précipitation Vent Pression Humidité
    00:00 +8°C° 0 mm 2 m/s 637 mmHg 91%
    01:00 +8°C° 0 mm 2 m/s 638 mmHg 91%
    02:00 +8°C° 0 mm 2 m/s 637 mmHg 91%
    03:00 +7°C° 0 mm 2 m/s 637 mmHg 90%
    04:00 +7°C° 0 mm 2 m/s 637 mmHg 89%
    05:00 +7°C° 0 mm 2 m/s 637 mmHg 88%
    06:00 +7°C° 0 mm 2 m/s 637 mmHg 86%
    07:00 +7°C° 0 mm 2 m/s 637 mmHg 85%
    08:00 +9°C° 0 mm 2 m/s 638 mmHg 79%
    09:00 +12°C° 0 mm 1 m/s 638 mmHg 73%
    10:00 +14°C° 0 mm 1 m/s 639 mmHg 67%
    11:00 +15°C° 0 mm 2 m/s 639 mmHg 63%
    12:00 +16°C° 0 mm 2 m/s 639 mmHg 58%
    13:00 +17°C° 0 mm 2 m/s 640 mmHg 54%
    14:00 +16°C° 0 mm 2 m/s 639 mmHg 59%
    15:00 +16°C° 0 mm 1 m/s 639 mmHg 65%
    16:00 +15°C° 0 mm 1 m/s 638 mmHg 70%
    17:00 +13°C° 0 mm 2 m/s 638 mmHg 72%
    18:00 +12°C° 0 mm 2 m/s 637 mmHg 75%
    19:00 +9°C° 0 mm 2 m/s 637 mmHg 77%
    20:00 +9°C° 0 mm 3 m/s 637 mmHg 76%
    21:00 +9°C° 0 mm 3 m/s 637 mmHg 75%
    22:00 +8°C° 0 mm 3 m/s 636 mmHg 74%
    23:00 +8°C° 0 mm 3 m/s 636 mmHg 73%

    23 Octobre, Mercredi

    Heure Température Précipitation Vent Pression Humidité
    00:00 +8°C° 0 mm 3 m/s 636 mmHg 72%
    01:00 +8°C° 0 mm 3 m/s 636 mmHg 71%
    02:00 +8°C° 0 mm 3 m/s 635 mmHg 69%
    03:00 +8°C° 0 mm 3 m/s 635 mmHg 67%
    04:00 +7°C° 0 mm 3 m/s 635 mmHg 65%
    05:00 +7°C° 0 mm 3 m/s 634 mmHg 62%
    06:00 +7°C° 0 mm 3 m/s 634 mmHg 60%
    07:00 +7°C° 0 mm 3 m/s 634 mmHg 58%
    08:00 +10°C° 0 mm 3 m/s 635 mmHg 53%
    09:00 +12°C° 0 mm 3 m/s 635 mmHg 48%
    10:00 +16°C° 0 mm 3 m/s 636 mmHg 43%
    11:00 +16°C° 0 mm 3 m/s 636 mmHg 41%
    12:00 +17°C° 0 mm 3 m/s 636 mmHg 39%
    13:00 +18°C° 0 mm 3 m/s 636 mmHg 37%
    14:00 +17°C° 0 mm 3 m/s 636 mmHg 42%
    15:00 +16°C° 0 mm 3 m/s 635 mmHg 48%
    16:00 +14°C° 0 mm 3 m/s 634 mmHg 54%
    17:00 +12°C° 0 mm 3 m/s 634 mmHg 58%
    18:00 +11°C° 0 mm 3 m/s 633 mmHg 62%
    19:00 +9°C° 0 mm 3 m/s 633 mmHg 66%
    20:00 +8°C° 0 mm 4 m/s 633 mmHg 66%
    21:00 +7°C° 0 mm 4 m/s 632 mmHg 67%
    22:00 +7°C° 0 mm 4 m/s 632 mmHg 67%
    23:00 +7°C° 0 mm 4 m/s 632 mmHg 65%

    24 Octobre, Jeudi

    Heure Température Précipitation Vent Pression Humidité
    00:00 +7°C° 0 mm 4 m/s 632 mmHg 63%
    01:00 +7°C° 0 mm 4 m/s 632 mmHg 60%
    02:00 +7°C° 0 mm 4 m/s 632 mmHg 59%
    03:00 +7°C° 0 mm 4 m/s 632 mmHg 57%
    04:00 +7°C° 0 mm 4 m/s 632 mmHg 55%
    05:00 +7°C° 0 mm 4 m/s 632 mmHg 56%
    06:00 +8°C° 0 mm 3 m/s 632 mmHg 57%
    07:00 +8°C° 0 mm 3 m/s 632 mmHg 58%
    08:00 +10°C° 0 mm 3 m/s 632 mmHg 56%
    09:00 +12°C° 0 mm 3 m/s 633 mmHg 54%
    10:00 +13°C° 0 mm 3 m/s 634 mmHg 52%
    11:00 +15°C° 0 mm 2 m/s 634 mmHg 52%
    12:00 +16°C° 0 mm 2 m/s 634 mmHg 51%
    13:00 +17°C° 0 mm 2 m/s 634 mmHg 51%
    14:00 +16°C° 0 mm 2 m/s 634 mmHg 56%
    15:00 +16°C° 0 mm 2 m/s 633 mmHg 60%
    16:00 +15°C° 0 mm 2 m/s 633 mmHg 65%
    17:00 +13°C° 0.1 mm 2 m/s 633 mmHg 73%
    18:00 +12°C° 0.1 mm 2 m/s 632 mmHg 80%
    19:00 +9°C° 0.1 mm 2 m/s 632 mmHg 88%
    20:00 +9°C° 0.2 mm 2 m/s 632 mmHg 89%
    21:00 +9°C° 0.2 mm 2 m/s 633 mmHg 89%
    22:00 +9°C° 0.2 mm 2 m/s 633 mmHg 90%
    23:00 +9°C° 0 mm 1 m/s 632 mmHg 91%

    25 Octobre, Vendredi

    Heure Température Précipitation Vent Pression Humidité
    00:00 +8°C° 0 mm 1 m/s 632 mmHg 91%
    01:00 +7°C° 0 mm 1 m/s 632 mmHg 92%
    02:00 +7°C° 0 mm 1 m/s 631 mmHg 92%
    03:00 +6°C° 0 mm 0 m/s 631 mmHg 93%
    04:00 +5°C° 0 mm 0 m/s 631 mmHg 93%
    05:00 +5°C° 0 mm 0 m/s 631 mmHg 93%
    06:00 +6°C° 0 mm 0 m/s 632 mmHg 94%
    07:00 +6°C° 0 mm 0 m/s 632 mmHg 94%
    08:00 +7°C° 0 mm 0 m/s 633 mmHg 89%
    09:00 +10°C° 0 mm 1 m/s 633 mmHg 84%
    10:00 +12°C° 0 mm 1 m/s 634 mmHg 79%
    11:00 +12°C° 0 mm 1 m/s 634 mmHg 76%
    12:00 +13°C° 0 mm 1 m/s 635 mmHg 74%
    13:00 +14°C° 0 mm 1 m/s 635 mmHg 72%
    14:00 +13°C° 0 mm 1 m/s 634 mmHg 75%
    15:00 +13°C° 0 mm 1 m/s 634 mmHg 77%
    16:00 +13°C° 0 mm 1 m/s 634 mmHg 79%
    17:00 +11°C° 0 mm 1 m/s 634 mmHg 82%
    18:00 +10°C° 0 mm 1 m/s 633 mmHg 86%
    19:00 +8°C° 0 mm 1 m/s 633 mmHg 89%
    20:00 +8°C° 0 mm 1 m/s 633 mmHg 88%
    21:00 +8°C° 0 mm 1 m/s 633 mmHg 86%
    22:00 +7°C° 0 mm 2 m/s 633 mmHg 84%
    23:00 +7°C° 0 mm 2 m/s 633 mmHg 83%
    Voir plus